[[{"header":{"parameterUnit":"m.s-1","parameterCategory":1,"la1":30.2991,"la2":30.254,"lo1":-89.0895,"lo2":-89.0444,"dy":0.0017,"dx":0.0017,"nx":28,"ny":28,"refTime":"2024-07-07T21:00:00:Z","depth":0,"parameterNumber":2,"parameterNumberName":"U-component_of_WINDS"},"data":[0,0,0,0,0,0,0,0,0,0,0,0,0,0,0,0,0,0,0,0,0,0,0,0,0,0,0,0,0,0,0,0,0,0,0,0,0,0,0,0,0,0,0,0,0,0,0,0,0,0,0,0,0,0,0,0,0,0,-1.2144,-1.2142,0,-1.2031,-1.203,-1.2029,-1.1953,-1.1953,-1.1952,-1.1952,-1.1836,-1.1834,-1.1831,0,0,0,0,0,0,0,0,0,0,0,0,0,-1.2295,-1.2292,-1.2144,-1.2142,-1.2141,-1.2032,-1.203,-1.2028,-1.1953,-1.1953,-1.1952,-1.1951,-1.1837,-1.1834,-1.1831,0,0,0,0,0,0,0,0,0,0,0,0,0,-1.2211,-1.2292,-1.2144,-1.209,-1.2084,-1.2032,-1.203,-1.2028,-1.1953,-1.1952,-1.1952,-1.1951,-1.1838,-1.1835,-1.1831,-1.1823,0,0,-1.1819,-1.1817,0,0,0,0,0,0,0,0,-1.2216,-1.2205,-1.21,-1.2094,-1.2087,-1.2005,-1.2041,-1.1959,-1.1953,-1.2003,-1.1951,-1.1951,-1.1893,-1.1885,-1.1866,-1.1818,-1.1813,-1.1819,-1.1816,-1.1815,-1.1814,0,0,0,0,0,0,0,-1.2221,-1.221,-1.2099,-1.2098,-1.209,-1.2072,-1.2059,-1.2025,-1.1954,-1.1999,-1.1993,-1.1981,-1.189,-1.1869,-1.1862,-1.1811,-1.1819,-1.1815,-1.1813,-1.1811,-1.1753,-1.1754,0,0,0,0,0,0,-1.2236,-1.2215,-1.2103,-1.2096,-1.2151,-1.207,-1.2056,-1.2032,-1.1954,-1.1941,-1.1981,-1.1978,-1.1876,-1.1867,-1.1858,-1.1845,-1.1815,-1.1811,-1.1809,-1.1752,-1.1753,-1.1754,0,0,0,0,0,0,-1.2239,-1.2226,-1.2107,-1.2154,-1.2137,-1.2068,-1.2043,-1.2031,-1.201,-1.1941,-1.1928,-1.1974,-1.1875,-1.1863,-1.1833,-1.184,-1.1809,-1.1806,-1.1751,-1.1752,-1.1754,-1.1818,0,0,0,0,0,0,-1.2244,-1.2228,-1.2224,-1.2154,-1.2135,-1.2084,-1.2043,-1.2029,-1.2004,-1.1998,-1.193,-1.1919,-1.1874,-1.1839,-1.1829,-1.1834,-1.1803,-1.175,-1.1752,-1.1753,-1.1815,-1.1821,-1.1827,0,0,0,0,0,-1.2249,-1.2246,-1.2224,-1.2211,-1.2128,-1.2084,-1.2073,-1.2022,-1.2005,-1.2,-1.1956,-1.1921,-1.1841,-1.1836,-1.1824,-1.1829,-1.175,-1.1751,-1.1753,-1.1813,-1.182,-1.1827,0,0,0,0,0,0,-1.2318,-1.2236,-1.221,-1.2184,-1.2142,-1.2072,-1.2064,-1.2031,-1.1993,-1.1989,-1.1927,-1.1912,-1.1888,-1.1855,-1.1852,-1.1818,-1.1791,-1.179,-1.184,-1.1847,-1.1853,-1.1861,-1.18,0,0,0,0,0,-1.233,-1.2301,-1.2231,-1.2215,-1.2195,-1.2134,-1.2112,-1.2077,-1.203,-1.2012,-1.1965,-1.1922,-1.1887,-1.1865,-1.1829,-1.181,-1.1795,-1.1807,-1.1813,-1.1818,-1.1819,-1.1808,-1.1813,-1.176,-1.176,-1.1759,0,0,-1.2355,-1.2306,-1.2291,-1.2227,-1.219,-1.2162,-1.2119,-1.209,-1.2069,-1.2007,-1.1976,-1.1941,-1.1888,-1.1864,-1.1851,-1.1835,-1.183,-1.182,-1.1825,-1.1822,-1.181,-1.1815,-1.182,-1.1761,-1.176,-1.176,0,0,-1.2386,-1.2345,-1.2328,-1.2292,-1.2237,-1.2197,-1.2193,-1.2127,-1.2102,-1.2069,-1.2023,-1.1997,-1.1938,-1.1903,-1.1877,-1.1897,-1.1864,-1.1887,-1.1918,-1.1908,-1.1912,-1.1916,-1.1924,-1.1928,-1.1888,-1.1888,-1.1888,0,-1.2423,-1.2378,-1.2324,-1.2298,-1.2272,-1.2216,-1.2199,-1.2166,-1.2102,-1.2086,-1.207,-1.1996,-1.1956,-1.1924,-1.1929,-1.191,-1.1904,-1.1894,-1.1916,-1.1919,-1.1921,-1.1929,-1.1932,-1.1891,-1.1891,-1.189,-1.189,0,-1.2428,-1.2398,-1.2391,-1.2331,-1.2304,-1.2283,-1.2226,-1.2206,-1.2173,-1.2135,-1.2103,-1.2054,-1.2008,-1.1998,-1.1965,-1.1961,-1.1954,-1.1928,-1.19,-1.1931,-1.1937,-1.1939,-1.1896,-1.1895,-1.1894,-1.1893,0,0,-1.2498,-1.2409,-1.2408,-1.2381,-1.2316,-1.2292,-1.2269,-1.2225,-1.2209,-1.2167,-1.2147,-1.2099,-1.2075,-1.2047,-1.201,-1.2001,-1.2022,-1.1976,-1.1974,-1.1987,-1.2017,-1.2037,-1.2041,-1.1999,-1.2,-1.2,-1.2022,0,-1.252,-1.2476,-1.2427,-1.24,-1.2372,-1.2319,-1.2299,-1.2258,-1.2222,-1.2194,-1.2154,-1.2122,-1.2092,-1.2075,-1.2064,-1.2022,-1.2027,-1.2019,-1.1981,-1.198,-1.1997,-1.2044,-1.2065,-1.2088,-1.2023,-1.2024,-1.2024,0,-1.2539,-1.25,-1.2471,-1.2411,-1.2397,-1.238,-1.2336,-1.231,-1.2263,-1.2237,-1.2206,-1.2167,-1.2142,-1.2117,-1.2082,-1.2078,-1.2059,-1.2036,-1.2036,-1.2031,-1.2005,-1.2041,-1.2094,-1.2098,-1.2027,-1.2027,-1.2026,0,-1.2595,-1.2535,-1.251,-1.2489,-1.2417,-1.2407,-1.2377,-1.2329,-1.2306,-1.2268,-1.2252,-1.2211,-1.2189,-1.2159,-1.2111,-1.2097,-1.2081,-1.2052,-1.206,-1.2062,-1.2059,-1.206,-1.2111,-1.2047,-1.2047,-1.2047,-1.2046,0,-1.2625,-1.2609,-1.2535,-1.252,-1.2501,-1.2446,-1.2429,-1.2394,-1.2352,-1.233,-1.2281,-1.2262,-1.2199,-1.2172,-1.2134,-1.2111,-1.2101,-1.2081,-1.2071,-1.2086,-1.2088,-1.2073,-1.2071,-1.2047,-1.2047,-1.2047,-1.2047,0,-1.2684,-1.2633,-1.2603,-1.2538,-1.2522,-1.2511,-1.2456,-1.244,-1.2402,-1.2374,-1.2365,-1.2305,-1.2271,-1.222,-1.217,-1.2145,-1.2129,-1.2112,-1.2145,-1.2139,-1.2151,-1.2151,-1.2194,-1.2197,-1.2131,-1.2131,-1.2132,0,-1.2707,-1.2693,-1.2628,-1.261,-1.2581,-1.2552,-1.2529,-1.2474,-1.2452,-1.2398,-1.2389,-1.2351,-1.2318,-1.2267,-1.2219,-1.2182,-1.2165,-1.2182,-1.2158,-1.2174,-1.2166,-1.2168,-1.2167,-1.2188,-1.2189,-1.219,-1.219,0,-1.2753,-1.2729,-1.2697,-1.2656,-1.263,-1.2595,-1.2558,-1.2546,-1.2484,-1.2461,-1.2426,-1.2401,-1.2351,-1.2315,-1.2271,-1.2241,-1.2206,-1.2198,-1.2198,-1.2214,-1.2234,-1.2224,-1.2161,-1.2198,-1.2197,-1.2196,-1.2196,-1.2196,-1.2795,-1.2782,-1.2734,-1.27,-1.2667,-1.2634,-1.2616,-1.2576,-1.2546,-1.2501,-1.2471,-1.2438,-1.2393,-1.2331,-1.2302,-1.2276,-1.2261,-1.2261,-1.2261,-1.2262,-1.2268,-1.2238,-1.2268,-1.2268,-1.2268,-1.2267,-1.2267,0,-1.284,-1.2807,-1.2777,-1.2727,-1.2701,-1.267,-1.2628,-1.2609,-1.2581,-1.2541,-1.251,-1.2471,-1.2436,-1.2387,-1.2348,-1.2337,-1.2321,-1.2329,-1.233,-1.2324,-1.2283,-1.2288,-1.2344,-1.2344,-1.2344,-1.2344,-1.2344,-1.2344,-1.2861,-1.2837,-1.2808,-1.2768,-1.2734,-1.2702,-1.2681,-1.2651,-1.2619,-1.2578,-1.2549,-1.2517,-1.2474,-1.2432,-1.2399,-1.2386,-1.2374,-1.2388,-1.237,-1.2333,-1.2326,-1.232,-1.2324,-1.2386,-1.2386,-1.2413,-1.2413,-1.2413]},{"header":{"parameterUnit":"m.s-1","parameterCategory":1,"la1":30.2991,"la2":30.254,"lo1":-89.0895,"lo2":-89.0444,"dy":0.0017,"dx":0.0017,"nx":28,"ny":28,"refTime":"2024-07-07T21:00:00:Z","depth":0,"parameterNumber":3,"parameterNumberName":"V-component_of_WINDS"},"data":[0,0,0,0,0,0,0,0,0,0,0,0,0,0,0,0,0,0,0,0,0,0,0,0,0,0,0,0,0,0,0,0,0,0,0,0,0,0,0,0,0,0,0,0,0,0,0,0,0,0,0,0,0,0,0,0,0,0,5.258,5.258,0,5.2594,5.2595,5.2595,5.2579,5.2579,5.2578,5.2577,5.2591,5.2591,5.2592,0,0,0,0,0,0,0,0,0,0,0,0,0,5.2537,5.2538,5.258,5.258,5.258,5.2594,5.2595,5.2595,5.2579,5.2579,5.2578,5.2577,5.259,5.2591,5.2592,0,0,0,0,0,0,0,0,0,0,0,0,0,5.2554,5.2538,5.258,5.2574,5.2574,5.2594,5.2595,5.2595,5.2579,5.2579,5.2578,5.2577,5.259,5.2591,5.2593,5.2619,0,0,5.2597,5.2597,0,0,0,0,0,0,0,0,5.2553,5.2555,5.2575,5.2574,5.2574,5.2584,5.2584,5.2603,5.258,5.2577,5.2577,5.2576,5.2589,5.259,5.2595,5.2619,5.262,5.2597,5.2598,5.2598,5.2599,0,0,0,0,0,0,0,5.2552,5.2555,5.2585,5.2575,5.2575,5.257,5.2572,5.2588,5.2588,5.2577,5.2576,5.2578,5.2589,5.2594,5.2595,5.262,5.2597,5.2598,5.2599,5.2599,5.2668,5.2668,0,0,0,0,0,0,5.2551,5.2554,5.2585,5.2586,5.2561,5.2572,5.2574,5.2582,5.2588,5.2588,5.2579,5.2578,5.2592,5.2594,5.2596,5.2627,5.2598,5.2599,5.26,5.2667,5.2668,5.2669,0,0,0,0,0,0,5.2551,5.2554,5.2584,5.257,5.2573,5.2574,5.2583,5.2583,5.2588,5.2589,5.2589,5.2584,5.2591,5.2594,5.2613,5.2627,5.26,5.2601,5.2665,5.2667,5.2668,5.269,0,0,0,0,0,0,5.2549,5.2554,5.2564,5.257,5.2574,5.2602,5.2584,5.2583,5.259,5.2588,5.2594,5.2594,5.2591,5.2612,5.2615,5.2629,5.2602,5.2664,5.2666,5.2668,5.2688,5.2692,5.2695,0,0,0,0,0,5.2548,5.2569,5.2565,5.2569,5.2587,5.2603,5.2605,5.2602,5.2591,5.2601,5.2603,5.2594,5.2625,5.2614,5.2617,5.2632,5.2663,5.2665,5.2668,5.2686,5.2691,5.2695,0,0,0,0,0,0,5.2564,5.257,5.2565,5.2589,5.2596,5.26,5.2613,5.2607,5.2616,5.2614,5.2609,5.261,5.2631,5.2633,5.262,5.2658,5.2643,5.2646,5.2656,5.266,5.2664,5.2663,5.2603,0,0,0,0,0,5.257,5.2583,5.2588,5.2608,5.2612,5.2612,5.2619,5.2616,5.2623,5.2625,5.2628,5.2634,5.2646,5.2653,5.2664,5.2689,5.269,5.27,5.2704,5.2707,5.271,5.2724,5.2729,5.2676,5.2676,5.2676,0,0,5.2583,5.2588,5.2596,5.2611,5.2616,5.263,5.2614,5.2629,5.2639,5.2627,5.2646,5.2649,5.2655,5.2678,5.2688,5.268,5.2725,5.271,5.2712,5.2713,5.2726,5.2731,5.2736,5.2678,5.2677,5.2677,0,0,5.2613,5.2619,5.2637,5.2643,5.2651,5.2651,5.2656,5.2662,5.2663,5.2682,5.2674,5.2686,5.2705,5.2711,5.2716,5.2751,5.2743,5.2754,5.2773,5.2787,5.2791,5.2795,5.2807,5.2812,5.2757,5.2757,5.2757,0,5.2628,5.2649,5.2646,5.2663,5.267,5.2661,5.2679,5.2684,5.2695,5.27,5.2692,5.2717,5.2721,5.2745,5.2754,5.2759,5.2763,5.2753,5.2791,5.2795,5.2798,5.281,5.2815,5.2758,5.2758,5.2758,5.2758,0,5.2667,5.2682,5.2695,5.2708,5.2716,5.2733,5.2733,5.2742,5.2739,5.274,5.276,5.2764,5.2776,5.2782,5.2778,5.2806,5.2801,5.2792,5.2776,5.2804,5.2815,5.282,5.276,5.276,5.2759,5.2759,0,0,5.2706,5.2718,5.2723,5.2729,5.2739,5.275,5.2767,5.2779,5.2787,5.2795,5.2809,5.2827,5.2819,5.2826,5.2823,5.2835,5.2862,5.2824,5.2824,5.2831,5.2894,5.29,5.2905,5.2858,5.2859,5.2859,5.2893,0,5.2737,5.2767,5.2766,5.2794,5.2808,5.2801,5.2815,5.2823,5.2824,5.2836,5.2838,5.2851,5.2839,5.2843,5.2855,5.2857,5.2875,5.2854,5.287,5.2871,5.2869,5.2911,5.2918,5.2949,5.2897,5.2898,5.2899,0,5.2777,5.2788,5.2818,5.2827,5.2832,5.2846,5.2858,5.2869,5.2877,5.2878,5.2886,5.2881,5.2898,5.2883,5.2906,5.2893,5.2899,5.2901,5.2902,5.2903,5.2886,5.2913,5.2959,5.2964,5.2905,5.2905,5.2904,0,5.2803,5.2825,5.2846,5.2852,5.2862,5.2872,5.2876,5.2884,5.2892,5.2903,5.2908,5.292,5.2926,5.2935,5.2934,5.2923,5.2958,5.2943,5.2959,5.2959,5.2966,5.2965,5.3014,5.2971,5.2971,5.2971,5.2971,0,5.2837,5.2856,5.2858,5.2871,5.2892,5.2891,5.2911,5.2915,5.2922,5.2935,5.2929,5.2941,5.2939,5.2952,5.2951,5.2971,5.2974,5.2974,5.2974,5.2975,5.2975,5.2979,5.2976,5.2972,5.2972,5.2971,5.2971,0,5.2869,5.2872,5.2894,5.2903,5.2906,5.2921,5.2928,5.294,5.2942,5.2959,5.2963,5.2966,5.298,5.298,5.2996,5.2996,5.302,5.3017,5.3018,5.3017,5.3033,5.3032,5.3085,5.3093,5.3045,5.3046,5.3046,0,5.2891,5.2905,5.2916,5.2925,5.2931,5.2946,5.2954,5.2954,5.2963,5.2975,5.2985,5.3,5.3011,5.3034,5.3037,5.305,5.3047,5.3065,5.3049,5.305,5.3048,5.3047,5.3048,5.3068,5.3069,5.3069,5.307,0,5.2929,5.293,5.2943,5.2958,5.2969,5.2979,5.2989,5.2997,5.2998,5.3008,5.3024,5.3033,5.305,5.3064,5.3077,5.3081,5.3076,5.3075,5.3079,5.308,5.308,5.308,5.3026,5.3073,5.3073,5.3073,5.3073,5.3072,5.2957,5.297,5.298,5.2995,5.3003,5.3013,5.3025,5.3029,5.3043,5.3057,5.3056,5.3074,5.3082,5.3099,5.3104,5.3118,5.3111,5.3117,5.3119,5.3121,5.3122,5.3078,5.312,5.312,5.3119,5.3119,5.3119,0,5.2995,5.3002,5.3016,5.3031,5.3043,5.3038,5.3049,5.306,5.3075,5.3084,5.3096,5.3114,5.3128,5.3133,5.3147,5.3157,5.3155,5.316,5.3159,5.3161,5.3127,5.3122,5.3162,5.3162,5.3162,5.3162,5.3162,5.3162,5.3016,5.3038,5.304,5.3066,5.3072,5.309,5.3097,5.3106,5.3114,5.3135,5.3147,5.315,5.3158,5.3172,5.3185,5.3186,5.3191,5.3198,5.3198,5.3167,5.3163,5.3159,5.3154,5.32,5.32,5.3231,5.3231,5.3231]}]]